[ hide orbit diagram ]
For accurate long-term ephemerides, please instead use our Horizons system.This orbit viewer was implemented using two-body methods, and hence should not be used for determining accurate long-term trajectories (over several years or decades) or planetary encounter circumstances.
Orbital Elements at Epoch 2459000.5 (2020-May-31.0) TDB
Reference: JPL 41 (heliocentric ecliptic J2000)
Element | Value | Uncertainty (1-sigma) | Units |
e | .04292413779107357 | 3.6288e-08 | |
a | 3.234325202140107 | 1.6899e-08 | au |
q | 3.095494581502303 | 1.1684e-07 | au |
i | 10.20806525097164 | 3.8918e-06 | deg |
node | 77.41542437046638 | 2.2559e-05 | deg |
peri | 282.2315135197519 | 5.1783e-05 | deg |
M | 31.22995856402758 | 4.5736e-05 | deg |
tp | 2458816.192562344246 (2019-Nov-28.69256234) | 0.00027022 | TDB |
period | 2124.584232798115 5.82 | 1.6651e-05 4.559e-08 | d yr |
n | .1694449174772768 | 1.328e-09 | deg/d |
Q | 3.37315582277791 | 1.7625e-08 | au |
|
| | Orbit Determination Parameters
Additional Information
|
[ show covariance matrix ]
Physical Parameter Table
Parameter |
Symbol |
Value |
Units |
Sigma |
Reference |
Notes |
absolute magnitude |
H |
10.7 |
|
n/a |
MPO416733 |
|
diameter |
diameter |
39.505 |
km |
0.438 |
urn:nasa:pds:neowise_diameters_albedos::2.0[mainbelt] (http://adsabs.harvard.edu/abs/2014ApJ...791..121M) |
|
rotation period |
rot_per |
6.4058 |
h |
n/a |
LCDB (Rev. 2020-October); Warner et al., 2009 |
Published Reference List: [Behrend, R. (2015) Observatoire de Geneve web site, http://obswww.unige.ch/~behrend/page_cou.html] [Waszczak, A.; Chang, C.-K.; Ofeck, E.O.; Laher, F.; et al. (2015) Astron. J. 150, A75.] |
geometric albedo |
albedo |
0.064 |
|
0.012 |
urn:nasa:pds:neowise_diameters_albedos::2.0[mainbelt] (http://adsabs.harvard.edu/abs/2012ApJ...759L...8M) |
|
|
2421 Nininger | Discovered 1979 Oct. 17 by E. Bowell at the Anderson Mesa station of the Lowell Observatory. |
Named on the occasion of the 95th birthday, 1982 Jan. 17, of Harvey Harlow Nininger, celebrated U.S. meteoriticist. Through field investigations and publicity he was responsible for the recovery of some 200 separate meteorite falls and finds, and his resulting 3000 samples are more than those of any other individual prior to the exploration of the Antarctic blue-ice fields. The author of many popular and technical works, he conducted much of his research at the Arizona meteorite crater, not far from Flagstaff. Name proposed by N. Sperling. |
NOTE: some special characters may not display properly (any characters within {} are an attempt to place the proper accent above a character) |
Reference: MPC 6531 | Last Updated: 2006-03-21 |
|
[ show close-approach data ]
Alternate Designations
1979 UD = 1932 RP = 1962 XJ1 = 1971 HH |
|
|